Pierceville, KS

12:12 AM CST on February 21, 2017 (GMT -0600)
Garden City Regional

Weather History for KGCK - May, 2013

Change the Weather History Date:

Saturday, May 11, 2013

  Actual Average Record
Temperature  
Mean Temperature 58 °F 62 °F  
Max Temperature 69 °F 75 °F 100 °F (1962)
Min Temperature 47 °F 48 °F 28 °F (1979)
Degree Days  
Heating Degree Days 7 5  
Month to date heating degree days 130 68  
Since 1 July heating degree days 5184 5130  
Cooling Degree Days 0 2  
Month to date cooling degree days 2 14  
Year to date cooling degree days 6 26  
Growing Degree Days 7 (Base 50)    
Moisture  
Dew Point 39 °F    
Average Humidity 58    
Maximum Humidity 86    
Minimum Humidity 30    
Precipitation  
Precipitation 0.00 in 0.09 in 1.43 in (1972)
Month to date precipitation 0.54 0.87  
Year to date precipitation 1.42 4.93  
Sea Level Pressure  
Sea Level Pressure 30.23 in    
Wind  
Wind Speed 13 mph (NNE)    
Max Wind Speed 30 mph    
Max Gust Speed 36 mph    
Visibility 10 miles    
Events      
T = Trace of Precipitation, MM = Missing Value Source: NWS Daily Summary

Daily Weather History Graph

Daily Weather History Graph

Search for Another Location

Airport or City:

Trip Planner

Search our weather history database for the weather conditions in past years. The results will help you decide how hot, cold, wet, or windy it might be!

Date:

Astronomy

May. 11, 2013 Rise Set
Actual Time 6:36 AM CDT 8:43 PM CDT
Civil Twilight 6:06 AM CDT 9:12 PM CDT
Nautical Twilight 5:31 AM CDT 9:48 PM CDT
Astronomical Twilight 4:52 AM CDT 10:26 PM CDT
Moon 7:45 AM CDT (5/11) 10:24 PM CDT (5/11)
Length of Visible Light 15h 05m
Length of Day
14h 07m
Waxing Crescent, 3% of the Moon is Illuminated
May 11
Waxing Crescent
May 17
First Quarter
May 24
Full
May 31
Last Quarter
Jun 8
New

Hourly Weather History & Observations

Time (CDT) Temp. Dew Point Humidity Pressure Visibility Wind Dir Wind Speed Gust Speed Precip Events Conditions
12:54 AM 52.0 °F 45.0 °F 77% 30.15 in 10.0 mi WNW 8.1 mph - N/A   Clear
1:54 AM 50.0 °F 45.0 °F 83% 30.15 in 10.0 mi WNW 9.2 mph - N/A   Clear
2:54 AM 48.9 °F 45.0 °F 86% 30.14 in 10.0 mi WNW 8.1 mph - N/A   Clear
3:54 AM 48.0 °F 44.1 °F 86% 30.15 in 10.0 mi WNW 8.1 mph - N/A   Clear
4:54 AM 48.0 °F 44.1 °F 86% 30.14 in 10.0 mi WNW 9.2 mph - N/A   Clear
5:54 AM 46.9 °F 43.0 °F 86% 30.17 in 10.0 mi North 11.5 mph - N/A   Clear
6:54 AM 48.0 °F 44.1 °F 86% 30.19 in 10.0 mi North 16.1 mph - N/A   Clear
7:54 AM 52.0 °F 44.1 °F 74% 30.24 in 10.0 mi NNE 17.3 mph - N/A   Clear
8:54 AM 55.0 °F 42.1 °F 62% 30.25 in 10.0 mi NNE 28.8 mph 33.4 mph N/A   Clear
9:54 AM 59.0 °F 39.0 °F 48% 30.27 in 10.0 mi NE 27.6 mph 35.7 mph N/A   Clear
10:54 AM 61.0 °F 37.9 °F 42% 30.29 in 10.0 mi NE 18.4 mph 31.1 mph N/A   Clear
11:54 AM 63.0 °F 36.0 °F 37% 30.30 in 10.0 mi NE 21.9 mph 28.8 mph N/A   Clear
12:54 PM 64.9 °F 36.0 °F 34% 30.31 in 10.0 mi NNE 16.1 mph 25.3 mph N/A   Clear
1:54 PM 66.0 °F 37.0 °F 34% 30.30 in 10.0 mi NNE 16.1 mph 23.0 mph N/A   Clear
2:54 PM 66.9 °F 37.0 °F 33% 30.30 in 10.0 mi NE 16.1 mph 23.0 mph N/A   Clear
3:54 PM 68.0 °F 37.0 °F 32% 30.28 in 10.0 mi North 13.8 mph 19.6 mph N/A   Clear
4:54 PM 68.0 °F 36.0 °F 31% 30.25 in 10.0 mi NNE 6.9 mph 24.2 mph N/A   Clear
5:54 PM 68.0 °F 36.0 °F 31% 30.25 in 10.0 mi ENE 6.9 mph - N/A   Clear
6:54 PM 66.9 °F 35.1 °F 31% 30.24 in 10.0 mi ENE 5.8 mph - N/A   Clear
7:54 PM 64.0 °F 35.1 °F 34% 30.24 in 10.0 mi East 8.1 mph - N/A   Clear
8:54 PM 57.9 °F 37.9 °F 47% 30.24 in 10.0 mi East 6.9 mph - N/A   Clear
9:54 PM 55.0 °F 36.0 °F 49% 30.25 in 10.0 mi East 9.2 mph - N/A   Clear
10:54 PM 52.0 °F 34.0 °F 50% 30.25 in 10.0 mi ESE 8.1 mph - N/A   Clear
11:54 PM 51.1 °F 34.0 °F 52% 30.25 in 10.0 mi SE 8.1 mph - N/A   Partly Cloudy